| time (UTC) | temp F | wind direction | speed MPH | gust MPH | rain 1hr in | rain 24hr in | rain mn in | humidity % | barometer mb |
| 20260906153100 | 75 | 32 | 1.0 | 2.0 | 0.00 | 0.00 | 0.00 | 72 | 1019.2 |
| 20260906151551 | 76 | 313 | 2.0 | 3.0 | 0.00 | 0.00 | 0.00 | 73 | 1019.0 |
| 20260906150041 | 73 | 314 | 1.0 | 2.0 | 0.00 | 0.00 | 0.00 | 75 | 1019.2 |
| 20260906144531 | 74 | 29 | 0.0 | 2.0 | 0.00 | 0.00 | 0.00 | 77 | 1019.1 |
| 20260906143021 | 72 | 315 | 3.0 | 4.0 | 0.00 | 0.00 | 0.00 | 80 | 1019.1 |
| 20260906141511 | 71 | 293 | 0.0 | 1.0 | 0.00 | 0.00 | 0.00 | 81 | 1019.0 |
| 20260906140003 | 69 | 315 | 2.0 | 6.0 | 0.00 | 0.00 | 0.00 | 84 | 1019.1 |
| 20260906134501 | 69 | 300 | 0.0 | 1.0 | 0.00 | 0.00 | 0.00 | 85 | 1019.1 |
| 20260906133000 | 68 | 327 | 2.0 | 3.0 | 0.00 | 0.00 | 0.00 | 85 | 1018.7 |
| 20260906131450 | 67 | 300 | 0.0 | 1.0 | 0.00 | 0.00 | 0.00 | 86 | 1018.6 |
| 20260906125941 | 65 | 293 | 0.0 | 1.0 | 0.00 | 0.00 | 0.00 | 89 | 1018.6 |
| 20260906124450 | 63 | 292 | 0.0 | 0.0 | 0.00 | 0.00 | 0.00 | 94 | 1018.5 |
| 20260906122940 | 61 | 282 | 1.0 | 2.0 | 0.00 | 0.00 | 0.00 | 97 | 1018.3 |
| 20260906121410 | 60 | 297 | 0.0 | 1.0 | 0.00 | 0.00 | 0.00 | 98 | 1018.3 |
| 20260906115901 | 59 | 287 | 0.0 | 1.0 | 0.00 | 0.00 | 0.00 | 98 | 1018.2 |
| 20260906114350 | 58 | 289 | 0.0 | 0.0 | 0.00 | 0.00 | 0.00 | 98 | 1018.3 |
| 20260906112841 | 58 | 302 | 0.0 | 0.0 | 0.00 | 0.00 | 0.00 | 98 | 1017.8 |
| 20260906111331 | 58 | 302 | 0.0 | 0.0 | 0.00 | 0.00 | 0.00 | 98 | 1017.6 |
| 20260906105821 | 58 | 302 | 0.0 | 0.0 | 0.00 | 0.00 | 0.00 | 97 | 1017.5 |
| 20260906104310 | 58 | 301 | 0.0 | 0.0 | 0.00 | 0.00 | 0.00 | 97 | 1017.3 |
| 20260906102820 | 58 | 299 | 0.0 | 0.0 | 0.00 | 0.00 | 0.00 | 97 | 1017.2 |
| 20260906101250 | 58 | 300 | 0.0 | 1.0 | 0.00 | 0.00 | 0.00 | 97 | 1017.2 |
| 20260906095800 | 58 | 300 | 0.0 | 0.0 | 0.00 | 0.00 | 0.00 | 96 | 1017.3 |
| 20260906094250 | 58 | 299 | 0.0 | 0.0 | 0.00 | 0.00 | 0.00 | 96 | 1017.3 |
| 20260906092721 | 58 | 298 | 0.0 | 0.0 | 0.00 | 0.00 | 0.00 | 96 | 1017.4 |
| 20260906091210 | 58 | 296 | 0.0 | 0.0 | 0.00 | 0.00 | 0.00 | 96 | 1017.5 |
| 20260906085720 | 58 | 294 | 0.0 | 0.0 | 0.00 | 0.00 | 0.00 | 96 | 1017.7 |
| 20260906084210 | 58 | 293 | 0.0 | 0.0 | 0.00 | 0.00 | 0.00 | 95 | 1017.5 |
| 20260906082641 | 57 | 293 | 0.0 | 0.0 | 0.00 | 0.00 | 0.00 | 95 | 1017.2 |
| 20260906081131 | 58 | 293 | 0.0 | 0.0 | 0.00 | 0.00 | 0.00 | 94 | 1017.2 |
| 20260906075641 | 58 | 293 | 0.0 | 0.0 | 0.00 | 0.00 | 0.00 | 92 | 1017.2 |
| 20260906074111 | 59 | 293 | 0.0 | 0.0 | 0.00 | 0.00 | 0.00 | 91 | 1017.2 |
| 20260906072600 | 60 | 299 | 0.0 | 0.0 | 0.00 | 0.00 | 0.00 | 90 | 1017.1 |
| 20260906071050 | 61 | 299 | 0.0 | 0.0 | 0.00 | 0.00 | 0.00 | 88 | 1017.0 |
| 20260906065540 | 61 | 301 | 0.0 | 1.0 | 0.00 | 0.00 | 0.00 | 86 | 1016.8 |
| 20260906064051 | 62 | 296 | 0.0 | 1.0 | 0.00 | 0.00 | 0.00 | 84 | 1016.9 |
| 20260906062521 | 63 | 309 | 0.0 | 1.0 | 0.00 | 0.00 | 0.00 | 82 | 1016.9 |
| 20260906061010 | 63 | 294 | 0.0 | 0.0 | 0.00 | 0.00 | 0.00 | 82 | 1016.8 |
| 20260906055502 | 63 | 298 | 0.0 | 0.0 | 0.00 | 0.00 | 0.00 | 83 | 1016.7 |
| 20260906054000 | 64 | 292 | 0.0 | 0.0 | 0.00 | 0.00 | 0.00 | 83 | 1016.6 |
| 20260906052500 | 64 | 297 | 0.0 | 1.0 | 0.00 | 0.00 | 0.00 | 83 | 1016.5 |
| 20260906050950 | 66 | 294 | 0.0 | 0.0 | 0.00 | 0.00 | 0.00 | 79 | 1016.7 |
| 20260906045440 | 67 | 286 | 0.0 | 0.0 | 0.00 | 0.00 | 0.00 | 76 | 1016.6 |
| 20260906043931 | 67 | 289 | 0.0 | 1.0 | 0.00 | 0.00 | 0.00 | 74 | 1016.6 |
| 20260906042420 | 68 | 2 | 1.0 | 3.0 | 0.00 | 0.00 | 0.00 | 74 | 1016.5 |
| 20260906040910 | 68 | 300 | 1.0 | 2.0 | 0.00 | 0.00 | 0.00 | 74 | 1016.5 |
| 20260906035400 | 69 | 301 | 1.0 | 2.0 | 0.00 | 0.07 | 0.07 | 71 | 1016.2 |
| 20260906033850 | 69 | 308 | 2.0 | 4.0 | 0.00 | 0.07 | 0.07 | 73 | 1016.6 |
| 20260906032341 | 69 | 47 | 1.0 | 3.0 | 0.00 | 0.07 | 0.07 | 74 | 1016.4 |
| 20260906030831 | 70 | 110 | 2.0 | 4.0 | 0.00 | 0.07 | 0.07 | 73 | 1016.5 |
| 20260906025320 | 70 | 292 | 1.0 | 2.0 | 0.00 | 0.07 | 0.07 | 72 | 1016.1 |
| 20260906023810 | 70 | 265 | 3.0 | 5.0 | 0.00 | 0.07 | 0.07 | 72 | 1016.2 |
| 20260906022300 | 71 | 293 | 3.0 | 6.0 | 0.00 | 0.07 | 0.07 | 72 | 1016.0 |
| 20260906020810 | 71 | 294 | 1.0 | 1.0 | 0.00 | 0.07 | 0.07 | 73 | 1015.8 |
| 20260906015301 | 70 | 293 | 0.0 | 0.0 | 0.00 | 0.07 | 0.07 | 81 | 1016.0 |
| 20260906013730 | 70 | 293 | 0.0 | 0.0 | 0.00 | 0.07 | 0.07 | 84 | 1015.8 |
| 20260906012220 | 70 | 297 | 0.0 | 1.0 | 0.00 | 0.07 | 0.07 | 86 | 1015.6 |
| 20260906010710 | 70 | 291 | 0.0 | 0.0 | 0.00 | 0.07 | 0.07 | 87 | 1015.5 |
| 20260906005201 | 70 | 283 | 0.0 | 0.0 | 0.00 | 0.07 | 0.07 | 88 | 1015.5 |
| 20260906003650 | 70 | 283 | 0.0 | 0.0 | 0.00 | 0.07 | 0.07 | 85 | 1015.3 |
| 20260906002140 | 71 | 275 | 1.0 | 2.0 | 0.00 | 0.07 | 0.07 | 84 | 1015.3 |
| 20260906000630 | 71 | 290 | 0.0 | 0.0 | 0.00 | 0.07 | 0.07 | 82 | 1015.1 |
| 20260905235120 | 72 | 283 | 0.0 | 0.0 | 0.00 | 0.07 | 0.07 | 81 | 1015.2 |
| 20260905233610 | 72 | 316 | 0.0 | 1.0 | 0.00 | 0.07 | 0.07 | 82 | 1015.1 |
| 20260905232100 | 73 | 294 | 0.0 | 0.0 | 0.00 | 0.07 | 0.07 | 82 | 1014.9 |
| 20260905230550 | 74 | 290 | 0.0 | 1.0 | 0.00 | 0.07 | 0.07 | 79 | 1014.7 |
| 20260905225040 | 74 | 294 | 1.0 | 2.0 | 0.00 | 0.07 | 0.07 | 79 | 1014.8 |
| 20260905223531 | 74 | 292 | 0.0 | 1.0 | 0.00 | 0.07 | 0.07 | 79 | 1014.9 |
| 20260905222020 | 74 | 293 | 0.0 | 1.0 | 0.00 | 0.07 | 0.07 | 77 | 1014.7 |
| 20260905220530 | 75 | 292 | 0.0 | 1.0 | 0.00 | 0.07 | 0.07 | 76 | 1014.5 |
| 20260905215002 | 76 | 293 | 1.0 | 2.0 | 0.00 | 0.07 | 0.07 | 76 | 1014.5 |
| 20260905213502 | 76 | 294 | 0.0 | 0.0 | 0.00 | 0.07 | 0.07 | 76 | 1014.5 |
| 20260905212001 | 76 | 326 | 1.0 | 1.0 | 0.00 | 0.07 | 0.07 | 74 | 1014.4 |
| 20260905210501 | 76 | 287 | 0.0 | 0.0 | 0.00 | 0.07 | 0.07 | 73 | 1014.4 |
| 20260905204950 | 76 | 289 | 0.0 | 0.0 | 0.00 | 0.07 | 0.07 | 73 | 1014.6 |
| 20260905203440 | 76 | 287 | 0.0 | 0.0 | 0.00 | 0.07 | 0.07 | 77 | 1014.6 |
| 20260905201930 | 75 | 303 | 0.0 | 1.0 | 0.00 | 0.07 | 0.07 | 77 | 1014.7 |
| 20260905200441 | 76 | 315 | 0.0 | 1.0 | 0.00 | 0.07 | 0.07 | 77 | 1015.0 |
| 20260905194910 | 75 | 275 | 0.0 | 1.0 | 0.00 | 0.07 | 0.07 | 80 | 1015.1 |
| 20260905193420 | 74 | 303 | 1.0 | 2.0 | 0.00 | 0.07 | 0.07 | 84 | 1014.7 |
| 20260905191910 | 74 | 258 | 2.0 | 3.0 | 0.00 | 0.07 | 0.07 | 86 | 1014.8 |
| 20260905190341 | 74 | 298 | 0.0 | 1.0 | 0.00 | 0.07 | 0.07 | 87 | 1014.9 |
| 20260905184830 | 73 | 278 | 0.0 | 1.0 | 0.00 | 0.07 | 0.07 | 88 | 1014.9 |
| 20260905183320 | 74 | 290 | 0.0 | 1.0 | 0.00 | 0.07 | 0.07 | 88 | 1014.9 |
| 20260905181810 | 73 | 286 | 0.0 | 1.0 | 0.00 | 0.07 | 0.07 | 90 | 1015.0 |
| 20260905180300 | 73 | 296 | 0.0 | 0.0 | 0.00 | 0.07 | 0.07 | 90 | 1015.0 |
| 20260905174750 | 73 | 280 | 0.0 | 1.0 | 0.00 | 0.07 | 0.07 | 91 | 1014.8 |
| 20260905173300 | 74 | 297 | 0.0 | 2.0 | 0.00 | 0.07 | 0.07 | 90 | 1014.9 |
| 20260905171730 | 74 | 307 | 0.0 | 1.0 | 0.00 | 0.07 | 0.07 | 90 | 1014.9 |
| 20260905170240 | 74 | 311 | 2.0 | 4.0 | 0.00 | 0.07 | 0.07 | 91 | 1015.1 |
| 20260905164711 | 74 | 348 | 2.0 | 4.0 | 0.00 | 0.07 | 0.07 | 92 | 1015.1 |
| 20260905163200 | 74 | 285 | 0.0 | 1.0 | 0.00 | 0.07 | 0.07 | 92 | 1015.2 |
| 20260905161651 | 73 | 287 | 0.0 | 2.0 | 0.00 | 0.07 | 0.07 | 94 | 1014.9 |
| 20260905160140 | 73 | 303 | 0.0 | 0.0 | 0.00 | 0.07 | 0.07 | 95 | 1014.9 |
| 20260905154651 | 73 | 290 | 0.0 | 0.0 | 0.00 | 0.07 | 0.07 | 95 | 1015.0 |